Weather History for Jacksonville, NC

Change the Weather History Date:

Sunday, April 28, 2013

  Actual Average Record
Temperature  
Mean Temperature 62 °F -  
Max Temperature 73 °F 72 °F 86 °F (2002)
Min Temperature 51 °F 49 °F 39 °F (2004)
Degree Days  
Heating Degree Days 3    
Growing Degree Days 12 (Base 50)    
Moisture  
Dew Point 45 °F    
Average Humidity 54    
Maximum Humidity 76    
Minimum Humidity 33    
Precipitation  
Precipitation 0.00 in - - ()
Sea Level Pressure  
Sea Level Pressure 30.22 in    
Wind  
Wind Speed 6 mph (ESE)    
Max Wind Speed 12 mph    
Max Gust Speed 17 mph    
Visibility 10 miles    
Events      
Averages and records for this station are not official NWS values.
T = Trace of Precipitation, MM = Missing Value Source: NWS Daily Summary

Daily Weather History Graph

Daily Weather History Graph

Search for Another Location

Airport:

Trip Planner

Search our weather history database for the weather conditions in past years. The results will help you decide how hot, cold, wet, or windy it might be!

Date:

Astronomy

Apr. 28, 2013 Rise Set
Actual Time 6:22 AM EDT 7:53 PM EDT
Civil Twilight 5:56 AM EDT 8:20 PM EDT
Nautical Twilight 5:24 AM EDT 8:52 PM EDT
Astronomical Twilight 4:50 AM EDT 9:26 PM EDT
Moon 11:17 PM EDT (4/28) 8:41 AM EDT (4/28)
Length of Visible Light 14h 24m
Length of Day
13h 30m
Waning Gibbous, 89% of the Moon is Illuminated
Apr 28
Waning Gibbous
May 2
Last Quarter
May 9
New
May 18
First Quarter
May 25
Full

Hourly Weather History & Observations

Time (EDT) Temp. Dew Point Humidity Pressure Visibility Wind Dir Wind Speed Gust Speed Precip Events Conditions
12:15 AM 55.4 °F 44.6 °F 67% 30.31 in 10.0 mi East 5.8 mph - N/A   Clear
12:35 AM 55.4 °F 44.6 °F 67% 30.30 in 10.0 mi East 5.8 mph - N/A   Clear
12:55 AM 55.4 °F 44.6 °F 67% 30.29 in 10.0 mi East 4.6 mph - N/A   Clear
1:15 AM 55.4 °F 44.6 °F 67% 30.29 in 10.0 mi East 3.5 mph - N/A   Scattered Clouds
1:35 AM 55.4 °F 44.6 °F 67% 30.29 in 10.0 mi ENE 5.8 mph - N/A   Partly Cloudy
1:55 AM 55.4 °F 44.6 °F 67% 30.28 in 10.0 mi East 5.8 mph - N/A   Clear
2:15 AM 55.4 °F 44.6 °F 67% 30.28 in 10.0 mi ENE 5.8 mph - N/A   Clear
2:35 AM 55.4 °F 42.8 °F 63% 30.28 in 10.0 mi ENE 4.6 mph - N/A   Partly Cloudy
2:55 AM 53.6 °F 42.8 °F 67% 30.27 in 10.0 mi ENE 5.8 mph - N/A   Scattered Clouds
3:15 AM 53.6 °F 42.8 °F 67% 30.27 in 10.0 mi ENE 6.9 mph - N/A   Scattered Clouds
3:35 AM 53.6 °F 42.8 °F 67% 30.26 in 10.0 mi ENE 5.8 mph - N/A   Mostly Cloudy
3:55 AM 53.6 °F 42.8 °F 67% 30.26 in 10.0 mi ENE 6.9 mph - N/A   Overcast
4:15 AM 53.6 °F 42.8 °F 67% 30.26 in 10.0 mi East 4.6 mph - N/A   Overcast
4:35 AM 53.6 °F 42.8 °F 67% 30.25 in 10.0 mi East 4.6 mph - N/A   Mostly Cloudy
4:55 AM 53.6 °F 42.8 °F 67% 30.24 in 10.0 mi East 5.8 mph - N/A   Mostly Cloudy
5:15 AM 53.6 °F 42.8 °F 67% 30.23 in 10.0 mi East 4.6 mph - N/A   Mostly Cloudy
5:35 AM 53.6 °F 42.8 °F 67% 30.24 in 10.0 mi ENE 4.6 mph - N/A   Mostly Cloudy
5:55 AM 53.6 °F 42.8 °F 67% 30.23 in 10.0 mi NE 5.8 mph - N/A   Mostly Cloudy
6:15 AM 53.6 °F 42.8 °F 67% 30.25 in 10.0 mi North 3.5 mph - N/A   Mostly Cloudy
6:35 AM 51.8 °F 44.6 °F 76% 30.25 in 10.0 mi NE 3.5 mph - N/A   Overcast
6:55 AM 53.6 °F 44.6 °F 72% 30.25 in 10.0 mi ENE 3.5 mph - N/A   Mostly Cloudy
7:15 AM 53.6 °F 42.8 °F 67% 30.26 in 10.0 mi ENE 4.6 mph - N/A   Scattered Clouds
7:35 AM 53.6 °F 44.6 °F 72% 30.26 in 10.0 mi ENE 3.5 mph - N/A   Clear
7:55 AM 55.4 °F 44.6 °F 67% 30.27 in 10.0 mi East 5.8 mph - N/A   Clear
8:15 AM 57.2 °F 42.8 °F 59% 30.27 in 10.0 mi ENE 6.9 mph - N/A   Clear
8:35 AM 60.8 °F 44.6 °F 55% 30.27 in 10.0 mi East 8.1 mph - N/A   Clear
9:15 AM 64.4 °F 46.4 °F 52% 30.27 in 10.0 mi ESE 4.6 mph - N/A   Clear
9:35 AM 66.2 °F 46.4 °F 49% 30.27 in 10.0 mi ESE 8.1 mph - N/A   Clear
9:55 AM 66.2 °F 46.4 °F 49% 30.27 in 10.0 mi ESE 8.1 mph - N/A   Partly Cloudy
10:15 AM 69.8 °F 44.6 °F 40% 30.27 in 10.0 mi SE 8.1 mph - N/A   Partly Cloudy
10:35 AM 69.8 °F 44.6 °F 40% 30.27 in 10.0 mi ESE 9.2 mph - N/A   Partly Cloudy
10:55 AM 69.8 °F 44.6 °F 40% 30.27 in 10.0 mi ESE 9.2 mph - N/A   Clear
11:15 AM 69.8 °F 42.8 °F 38% 30.26 in 10.0 mi ESE 10.4 mph - N/A   Clear
11:35 AM 71.6 °F 44.6 °F 38% 30.26 in 10.0 mi East 11.5 mph - N/A   Clear
11:55 AM 71.6 °F 42.8 °F 35% 30.26 in 10.0 mi ESE 11.5 mph - N/A   Clear
12:15 PM 71.6 °F 41.0 °F 33% 30.25 in 10.0 mi ESE 10.4 mph - N/A   Clear
12:35 PM 71.6 °F 42.8 °F 35% 30.24 in 10.0 mi ESE 6.9 mph - N/A   Clear
12:55 PM 73.4 °F 42.8 °F 33% 30.23 in 10.0 mi East 10.4 mph - N/A   Clear
1:15 PM 71.6 °F 41.0 °F 33% 30.23 in 10.0 mi East 10.4 mph - N/A   Clear
1:35 PM 71.6 °F 41.0 °F 33% 30.23 in 10.0 mi East 9.2 mph - N/A   Clear
1:55 PM 71.6 °F 41.0 °F 33% 30.23 in 10.0 mi ESE 9.2 mph - N/A   Partly Cloudy
2:15 PM 71.6 °F 42.8 °F 35% 30.22 in 10.0 mi SE 10.4 mph 17.3 mph N/A   Clear
2:35 PM 71.6 °F 42.8 °F 35% 30.21 in 10.0 mi South 11.5 mph 16.1 mph N/A   Clear
2:55 PM 69.8 °F 42.8 °F 38% 30.21 in 10.0 mi SSE 6.9 mph - N/A   Partly Cloudy
3:15 PM 69.8 °F 42.8 °F 38% 30.19 in 10.0 mi SE 6.9 mph - N/A   Partly Cloudy
3:35 PM 71.6 °F 42.8 °F 35% 30.19 in 10.0 mi SSE 9.2 mph - N/A   Partly Cloudy
3:55 PM 71.6 °F 42.8 °F 35% 30.18 in 10.0 mi South 5.8 mph - N/A   Clear
4:15 PM 71.6 °F 42.8 °F 35% 30.18 in 10.0 mi SSE 6.9 mph - N/A   Partly Cloudy
4:35 PM 71.6 °F 44.6 °F 38% 30.17 in 10.0 mi SSE 8.1 mph - N/A   Partly Cloudy
4:55 PM 71.6 °F 46.4 °F 41% 30.16 in 10.0 mi SE 9.2 mph - N/A   Partly Cloudy
5:15 PM 71.6 °F 46.4 °F 41% 30.16 in 10.0 mi SSE 6.9 mph - N/A   Partly Cloudy
5:35 PM 69.8 °F 46.4 °F 43% 30.16 in 10.0 mi SSE 9.2 mph - N/A   Partly Cloudy
5:55 PM 69.8 °F 46.4 °F 43% 30.15 in 10.0 mi South 5.8 mph - N/A   Partly Cloudy
6:15 PM 69.8 °F 46.4 °F 43% 30.15 in 10.0 mi South 5.8 mph - N/A   Clear
6:35 PM 68.0 °F 46.4 °F 46% 30.14 in 10.0 mi SSE 8.1 mph - N/A   Partly Cloudy
6:55 PM 66.2 °F 48.2 °F 52% 30.14 in 10.0 mi SSE 9.2 mph - N/A   Mostly Cloudy
7:15 PM 66.2 °F 48.2 °F 52% 30.14 in 10.0 mi ESE 8.1 mph - N/A   Mostly Cloudy
7:35 PM 66.2 °F 46.4 °F 49% 30.14 in 10.0 mi SSE 4.6 mph - N/A   Scattered Clouds
7:55 PM 64.4 °F 46.4 °F 52% 30.13 in 10.0 mi SE 6.9 mph - N/A   Scattered Clouds
8:15 PM 64.4 °F 46.4 °F 52% 30.14 in 10.0 mi SE 3.5 mph - N/A   Mostly Cloudy
8:35 PM 64.4 °F 46.4 °F 52% 30.15 in 10.0 mi ESE 4.6 mph - N/A   Scattered Clouds
8:55 PM 62.6 °F 46.4 °F 55% 30.15 in 10.0 mi ESE 4.6 mph - N/A   Mostly Cloudy
9:15 PM 62.6 °F 48.2 °F 59% 30.14 in 10.0 mi ESE 5.8 mph - N/A   Mostly Cloudy
9:35 PM 62.6 °F 48.2 °F 59% 30.13 in 10.0 mi East 5.8 mph - N/A   Mostly Cloudy
9:55 PM 62.6 °F 48.2 °F 59% 30.14 in 10.0 mi Calm Calm - N/A   Overcast
10:15 PM 62.6 °F 50.0 °F 63% 30.14 in 10.0 mi South 3.5 mph - N/A   Overcast
10:35 PM 62.6 °F 51.8 °F 68% 30.14 in 10.0 mi SSE 5.8 mph - N/A   Overcast
10:55 PM 62.6 °F 51.8 °F 68% 30.14 in 10.0 mi SSE 4.6 mph - N/A   Overcast
11:15 PM 62.6 °F 51.8 °F 68% 30.13 in 10.0 mi SE 4.6 mph - N/A   Overcast
11:35 PM 62.6 °F 53.6 °F 72% 30.13 in 10.0 mi SE 5.8 mph - N/A   Overcast
11:55 PM 62.6 °F 53.6 °F 72% 30.13 in 10.0 mi SE 5.8 mph - N/A   Overcast